Year,Month,Day,Hour,Minute,Value (Times are PST for temperature in C)
2009,03,09,00,00,1.30
2009,03,09,00,01,1.40
2009,03,09,00,02,1.40
2009,03,09,00,03,1.40
2009,03,09,00,04,1.40
2009,03,09,00,05,1.40
2009,03,09,00,06,1.40
2009,03,09,00,07,1.40
2009,03,09,00,08,1.40
2009,03,09,00,09,1.40
2009,03,09,00,10,1.40
2009,03,09,00,11,1.40
2009,03,09,00,12,1.40
2009,03,09,00,13,1.40
2009,03,09,00,14,1.40
2009,03,09,00,15,1.50
2009,03,09,00,16,1.50
2009,03,09,00,17,1.50
2009,03,09,00,18,1.50
2009,03,09,00,19,1.50
2009,03,09,00,20,1.50
2009,03,09,00,21,1.40
2009,03,09,00,22,1.40
2009,03,09,00,23,1.40
2009,03,09,00,24,1.40
2009,03,09,00,25,1.40
2009,03,09,00,26,1.40
2009,03,09,00,27,1.40
2009,03,09,00,28,1.30
2009,03,09,00,29,1.30
2009,03,09,00,30,1.30
2009,03,09,00,31,1.40
2009,03,09,00,32,1.40
2009,03,09,00,33,1.40
2009,03,09,00,34,1.40
2009,03,09,00,35,1.40
2009,03,09,00,36,1.40
2009,03,09,00,37,1.40
2009,03,09,00,38,1.40
2009,03,09,00,39,1.40
2009,03,09,00,40,1.40
2009,03,09,00,41,1.40
2009,03,09,00,42,1.40
2009,03,09,00,43,1.30
2009,03,09,00,44,1.30
2009,03,09,00,45,1.30
2009,03,09,00,46,1.30
2009,03,09,00,47,1.30
2009,03,09,00,48,1.30
2009,03,09,00,49,1.30
2009,03,09,00,50,1.30
2009,03,09,00,51,1.30
2009,03,09,00,52,1.30
2009,03,09,00,53,1.30
2009,03,09,00,54,1.30
2009,03,09,00,55,1.30
2009,03,09,00,56,1.20
2009,03,09,00,57,1.20
2009,03,09,00,58,1.20
2009,03,09,00,59,1.20
2009,03,09,01,00,1.30
2009,03,09,01,01,1.30
2009,03,09,01,02,1.30
2009,03,09,01,03,1.30
2009,03,09,01,04,1.30
2009,03,09,01,05,1.30
2009,03,09,01,06,1.30
2009,03,09,01,07,1.30
2009,03,09,01,08,1.30
2009,03,09,01,09,1.30
2009,03,09,01,10,1.30
2009,03,09,01,11,1.30
2009,03,09,01,12,1.30
2009,03,09,01,13,1.30
2009,03,09,01,14,1.30
2009,03,09,01,15,1.30
2009,03,09,01,16,1.30
2009,03,09,01,17,1.30
2009,03,09,01,18,1.30
2009,03,09,01,19,1.30
2009,03,09,01,20,1.30
2009,03,09,01,21,1.30
2009,03,09,01,22,1.30
2009,03,09,01,23,1.30
2009,03,09,01,24,1.30
2009,03,09,01,25,1.30
2009,03,09,01,26,1.30
2009,03,09,01,27,1.30
2009,03,09,01,28,1.30
2009,03,09,01,29,1.30
2009,03,09,01,30,1.30
2009,03,09,01,31,1.30
2009,03,09,01,32,1.30
2009,03,09,01,33,1.30
2009,03,09,01,34,1.30
2009,03,09,01,35,1.30
2009,03,09,01,36,1.30
2009,03,09,01,37,1.30
2009,03,09,01,38,1.30
2009,03,09,01,39,1.30
2009,03,09,01,40,1.30
2009,03,09,01,41,1.30
2009,03,09,01,42,1.30
2009,03,09,01,43,1.30
2009,03,09,01,44,1.30
2009,03,09,01,45,1.30
2009,03,09,01,46,1.30
2009,03,09,01,47,1.30
2009,03,09,01,48,1.30
2009,03,09,01,49,1.30
2009,03,09,01,50,1.30
2009,03,09,01,51,1.30
2009,03,09,01,52,1.30
2009,03,09,01,53,1.30
2009,03,09,01,54,1.30
2009,03,09,01,55,1.30
2009,03,09,01,56,1.30
2009,03,09,01,57,1.30
2009,03,09,01,58,1.30
2009,03,09,01,59,1.20
2009,03,09,02,00,1.20
2009,03,09,02,01,1.20
2009,03,09,02,02,1.20
2009,03,09,02,03,1.20
2009,03,09,02,04,1.20
2009,03,09,02,05,1.30
2009,03,09,02,06,1.20
2009,03,09,02,07,1.20
2009,03,09,02,08,1.20
2009,03,09,02,09,1.30
2009,03,09,02,10,1.30
2009,03,09,02,11,1.30
2009,03,09,02,12,1.30
2009,03,09,02,13,1.30
2009,03,09,02,14,1.30
2009,03,09,02,15,1.30
2009,03,09,02,16,1.30
2009,03,09,02,17,1.30
2009,03,09,02,18,1.30
2009,03,09,02,19,1.30
2009,03,09,02,20,1.30
2009,03,09,02,21,1.30
2009,03,09,02,22,1.30
2009,03,09,02,23,1.30
2009,03,09,02,24,1.30
2009,03,09,02,25,1.30
2009,03,09,02,26,1.30
2009,03,09,02,27,1.30
2009,03,09,02,28,1.30
2009,03,09,02,29,1.30
2009,03,09,02,30,1.30
2009,03,09,02,31,1.30
2009,03,09,02,32,1.30
2009,03,09,02,33,1.30
2009,03,09,02,34,1.30
2009,03,09,02,35,1.30
2009,03,09,02,36,1.30
2009,03,09,02,37,1.30
2009,03,09,02,38,1.30
2009,03,09,02,39,1.30
2009,03,09,02,40,1.30
2009,03,09,02,41,1.30
2009,03,09,02,42,1.30
2009,03,09,02,43,1.30
2009,03,09,02,44,1.30
2009,03,09,02,45,1.30
2009,03,09,02,46,1.30
2009,03,09,02,47,1.30
2009,03,09,02,48,1.30
2009,03,09,02,49,1.30
2009,03,09,02,50,1.30
2009,03,09,02,51,1.30
2009,03,09,02,52,1.30
2009,03,09,02,53,1.30
2009,03,09,02,54,1.20
2009,03,09,02,55,1.20
2009,03,09,02,56,1.20
2009,03,09,02,57,1.20
2009,03,09,02,58,1.30
2009,03,09,02,59,1.30
2009,03,09,03,00,1.30
2009,03,09,03,01,1.30
2009,03,09,03,02,1.30
2009,03,09,03,03,1.30
2009,03,09,03,04,1.30
2009,03,09,03,05,1.20
2009,03,09,03,06,1.20
2009,03,09,03,07,1.20
2009,03,09,03,08,1.20
2009,03,09,03,09,1.20
2009,03,09,03,10,1.20
2009,03,09,03,11,1.20
2009,03,09,03,12,1.20
2009,03,09,03,13,1.20
2009,03,09,03,14,1.20
2009,03,09,03,15,1.20
2009,03,09,03,16,1.20
2009,03,09,03,17,1.20
2009,03,09,03,18,1.20
2009,03,09,03,19,1.20
2009,03,09,03,20,1.20
2009,03,09,03,21,1.20
2009,03,09,03,22,1.10
2009,03,09,03,23,1.10
2009,03,09,03,24,1.10
2009,03,09,03,25,1.10
2009,03,09,03,26,1.10
2009,03,09,03,27,1.10
2009,03,09,03,28,1.10
2009,03,09,03,29,1.10
2009,03,09,03,30,1.10
2009,03,09,03,31,1.10
2009,03,09,03,32,1.10
2009,03,09,03,33,1.10
2009,03,09,03,34,1.10
2009,03,09,03,35,1.10
2009,03,09,03,36,1.10
2009,03,09,03,37,1.10
2009,03,09,03,38,1.10
2009,03,09,03,39,1.10
2009,03,09,03,40,1.10
2009,03,09,03,41,1.10
2009,03,09,03,42,1.10
2009,03,09,03,43,1.10
2009,03,09,03,44,1.00
2009,03,09,03,45,1.00
2009,03,09,03,46,1.00
2009,03,09,03,47,1.00
2009,03,09,03,48,1.00
2009,03,09,03,49,0.90
2009,03,09,03,50,0.90
2009,03,09,03,51,0.90
2009,03,09,03,52,0.90
2009,03,09,03,53,0.90
2009,03,09,03,54,0.90
2009,03,09,03,55,0.90
2009,03,09,03,56,0.80
2009,03,09,03,57,0.80
2009,03,09,03,58,0.80
2009,03,09,03,59,0.80
2009,03,09,04,00,0.80
2009,03,09,04,01,0.80
2009,03,09,04,02,0.70
2009,03,09,04,03,0.70
2009,03,09,04,04,0.70
2009,03,09,04,05,0.70
2009,03,09,04,06,0.70
2009,03,09,04,07,0.70
2009,03,09,04,08,0.70
2009,03,09,04,09,0.70
2009,03,09,04,10,0.70
2009,03,09,04,11,0.70
2009,03,09,04,12,0.70
2009,03,09,04,13,0.70
2009,03,09,04,14,0.70
2009,03,09,04,15,0.70
2009,03,09,04,16,0.80
2009,03,09,04,17,0.80
2009,03,09,04,18,0.80
2009,03,09,04,19,0.80
2009,03,09,04,20,0.80
2009,03,09,04,21,0.80
2009,03,09,04,22,0.80
2009,03,09,04,23,0.70
2009,03,09,04,24,0.70
2009,03,09,04,25,0.60
2009,03,09,04,26,0.60
2009,03,09,04,27,0.60
2009,03,09,04,28,0.60
2009,03,09,04,29,0.50
2009,03,09,04,30,0.60
2009,03,09,04,31,0.60
2009,03,09,04,32,0.70
2009,03,09,04,33,0.70
2009,03,09,04,34,0.70
2009,03,09,04,35,0.70
2009,03,09,04,36,0.70
2009,03,09,04,37,0.70
2009,03,09,04,38,0.70
2009,03,09,04,39,0.70
2009,03,09,04,40,0.70
2009,03,09,04,41,0.70
2009,03,09,04,42,0.70
2009,03,09,04,43,0.70
2009,03,09,04,44,0.70
2009,03,09,04,45,0.80
2009,03,09,04,46,0.70
2009,03,09,04,47,0.80
2009,03,09,04,48,0.80
2009,03,09,04,49,0.80
2009,03,09,04,50,0.70
2009,03,09,04,51,0.70
2009,03,09,04,52,0.80
2009,03,09,04,53,0.80
2009,03,09,04,54,0.80
2009,03,09,04,55,0.90
2009,03,09,04,56,0.90
2009,03,09,04,57,0.90
2009,03,09,04,58,0.90
2009,03,09,04,59,0.90
2009,03,09,05,00,0.90
2009,03,09,05,01,0.90
2009,03,09,05,02,0.90
2009,03,09,05,03,0.90
2009,03,09,05,04,1.00
2009,03,09,05,05,1.00
2009,03,09,05,06,1.00
2009,03,09,05,07,1.00
2009,03,09,05,08,1.00
2009,03,09,05,09,1.00
2009,03,09,05,10,1.00
2009,03,09,05,11,1.00
2009,03,09,05,12,1.00
2009,03,09,05,13,1.00
2009,03,09,05,14,1.00
2009,03,09,05,15,1.00
2009,03,09,05,16,1.00
2009,03,09,05,17,1.00
2009,03,09,05,18,1.00
2009,03,09,05,19,1.10
2009,03,09,05,20,1.10
2009,03,09,05,21,1.10
2009,03,09,05,22,1.10
2009,03,09,05,23,1.10
2009,03,09,05,24,1.10
2009,03,09,05,25,1.10
2009,03,09,05,26,1.10
2009,03,09,05,27,1.10
2009,03,09,05,28,1.10
2009,03,09,05,29,1.10
2009,03,09,05,30,1.10
2009,03,09,05,31,1.10
2009,03,09,05,32,1.10
2009,03,09,05,33,1.10
2009,03,09,05,34,1.00
2009,03,09,05,35,1.00
2009,03,09,05,36,1.00
2009,03,09,05,37,1.00
2009,03,09,05,38,1.00
2009,03,09,05,39,1.00
2009,03,09,05,40,1.00
2009,03,09,05,41,1.00
2009,03,09,05,42,1.00
2009,03,09,05,43,0.90
2009,03,09,05,44,0.90
2009,03,09,05,45,0.90
2009,03,09,05,46,0.90
2009,03,09,05,47,0.90
2009,03,09,05,48,0.90
2009,03,09,05,49,0.90
2009,03,09,05,50,0.90
2009,03,09,05,51,0.90
2009,03,09,05,52,0.90
2009,03,09,05,53,0.90
2009,03,09,05,54,0.90
2009,03,09,05,55,0.90
2009,03,09,05,56,0.90
2009,03,09,05,57,0.90
2009,03,09,05,58,0.80
2009,03,09,05,59,0.80
2009,03,09,06,00,0.80
2009,03,09,06,01,0.80
2009,03,09,06,02,0.80
2009,03,09,06,03,0.80
2009,03,09,06,04,0.80
2009,03,09,06,05,0.70
2009,03,09,06,06,0.70
2009,03,09,06,07,0.70
2009,03,09,06,08,0.70
2009,03,09,06,09,0.60
2009,03,09,06,10,0.60
2009,03,09,06,11,0.60
2009,03,09,06,12,0.50
2009,03,09,06,13,0.50
2009,03,09,06,14,0.40
2009,03,09,06,15,0.40
2009,03,09,06,16,0.30
2009,03,09,06,17,0.30
2009,03,09,06,18,0.30
2009,03,09,06,19,0.20
2009,03,09,06,20,0.20
2009,03,09,06,21,0.20
2009,03,09,06,22,0.10
2009,03,09,06,23,0.10
2009,03,09,06,24,0.00
2009,03,09,06,25,0.00
2009,03,09,06,26,-0.10
2009,03,09,06,27,-0.20
2009,03,09,06,28,-0.20
2009,03,09,06,29,-0.30
2009,03,09,06,30,-0.30
2009,03,09,06,31,-0.40
2009,03,09,06,32,-0.50
2009,03,09,06,33,-0.60
2009,03,09,06,34,-0.60
2009,03,09,06,35,-0.70
2009,03,09,06,36,-0.70
2009,03,09,06,37,-0.80
2009,03,09,06,38,-0.80
2009,03,09,06,39,-0.80
2009,03,09,06,40,-0.80
2009,03,09,06,41,-0.90
2009,03,09,06,42,-0.90
2009,03,09,06,43,-0.90
2009,03,09,06,44,-0.90
2009,03,09,06,45,-0.90
2009,03,09,06,46,-0.90
2009,03,09,06,47,-0.90
2009,03,09,06,48,-1.00
2009,03,09,06,49,-1.00
2009,03,09,06,50,-1.10
2009,03,09,06,51,-1.10
2009,03,09,06,52,-1.10
2009,03,09,06,53,-1.10
2009,03,09,06,54,-1.20
2009,03,09,06,55,-1.20
2009,03,09,06,56,-1.20
2009,03,09,06,57,-1.20
2009,03,09,06,58,-1.20
2009,03,09,06,59,-1.20
2009,03,09,07,00,-1.20
2009,03,09,07,01,-1.20
2009,03,09,07,02,-1.20
2009,03,09,07,03,-1.20
2009,03,09,07,04,-1.30
2009,03,09,07,05,-1.30
2009,03,09,07,06,-1.30
2009,03,09,07,07,-1.30
2009,03,09,07,08,-1.30
2009,03,09,07,09,-1.30
2009,03,09,07,10,-1.30
2009,03,09,07,11,-1.30
2009,03,09,07,12,-1.30
2009,03,09,07,13,-1.30
2009,03,09,07,14,-1.30
2009,03,09,07,15,-1.30
2009,03,09,07,16,-1.30
2009,03,09,07,17,-1.30
2009,03,09,07,18,-1.30
2009,03,09,07,19,-1.30
2009,03,09,07,20,-1.30
2009,03,09,07,21,-1.30
2009,03,09,07,22,-1.30
2009,03,09,07,23,-1.30
2009,03,09,07,24,-1.30
2009,03,09,07,25,-1.30
2009,03,09,07,26,-1.30
2009,03,09,07,27,-1.30
2009,03,09,07,28,-1.30
2009,03,09,07,29,-1.30
2009,03,09,07,30,-1.30
2009,03,09,07,31,-1.30
2009,03,09,07,32,-1.30
2009,03,09,07,33,-1.30
2009,03,09,07,34,-1.30
2009,03,09,07,35,-1.30
2009,03,09,07,36,-1.30
2009,03,09,07,37,-1.30
2009,03,09,07,38,-1.30
2009,03,09,07,39,-1.30
2009,03,09,07,40,-1.30
2009,03,09,07,41,-1.30
2009,03,09,07,42,-1.30
2009,03,09,07,43,-1.30
2009,03,09,07,44,-1.30
2009,03,09,07,45,-1.30
2009,03,09,07,46,-1.30
2009,03,09,07,47,-1.30
2009,03,09,07,48,-1.30
2009,03,09,07,49,-1.30
2009,03,09,07,50,-1.30
2009,03,09,07,51,-1.30
2009,03,09,07,52,-1.40
2009,03,09,07,53,-1.40
2009,03,09,07,54,-1.40
2009,03,09,07,55,-1.40
2009,03,09,07,56,-1.40
2009,03,09,07,57,-1.40
2009,03,09,07,58,-1.40
2009,03,09,07,59,-1.30
2009,03,09,08,00,-1.30
2009,03,09,08,01,-1.30
2009,03,09,08,02,-1.30
2009,03,09,08,03,-1.30
2009,03,09,08,04,-1.30
2009,03,09,08,05,-1.30
2009,03,09,08,06,-1.30
2009,03,09,08,07,-1.30
2009,03,09,08,08,-1.30
2009,03,09,08,09,-1.30
2009,03,09,08,10,-1.30
2009,03,09,08,11,-1.30
2009,03,09,08,12,-1.30
2009,03,09,08,13,-1.30
2009,03,09,08,14,-1.30
2009,03,09,08,15,-1.30
2009,03,09,08,16,-1.30
2009,03,09,08,17,-1.30
2009,03,09,08,18,-1.30
2009,03,09,08,19,-1.30
2009,03,09,08,20,-1.30
2009,03,09,08,21,-1.30
2009,03,09,08,22,-1.30
2009,03,09,08,23,-1.30
2009,03,09,08,24,-1.30
2009,03,09,08,25,-1.30
2009,03,09,08,26,-1.40
2009,03,09,08,27,-1.40
2009,03,09,08,28,-1.40
2009,03,09,08,29,-1.40
2009,03,09,08,30,-1.40
2009,03,09,08,31,-1.40
2009,03,09,08,32,-1.40
2009,03,09,08,33,-1.40
2009,03,09,08,34,-1.40
2009,03,09,08,35,-1.40
2009,03,09,08,36,-1.40
2009,03,09,08,37,-1.40
2009,03,09,08,38,-1.40
2009,03,09,08,39,-1.40
2009,03,09,08,40,-1.40
2009,03,09,08,41,-1.40
2009,03,09,08,42,-1.40
2009,03,09,08,43,-1.40
2009,03,09,08,44,-1.40
2009,03,09,08,45,-1.40
2009,03,09,08,46,-1.40
2009,03,09,08,47,-1.50
2009,03,09,08,48,-1.50
2009,03,09,08,49,-1.50
2009,03,09,08,50,-1.60
2009,03,09,08,51,-1.60
2009,03,09,08,52,-1.60
2009,03,09,08,53,-1.60
2009,03,09,08,54,-1.70
2009,03,09,08,55,-1.70
2009,03,09,08,56,-1.70
2009,03,09,08,57,-1.70
2009,03,09,08,58,-1.70
2009,03,09,08,59,-1.70
2009,03,09,09,00,-1.80
2009,03,09,09,01,-1.80
2009,03,09,09,02,-1.80
2009,03,09,09,03,-1.80
2009,03,09,09,04,-1.90
2009,03,09,09,05,-1.90
2009,03,09,09,06,-1.90
2009,03,09,09,07,-1.90
2009,03,09,09,08,-1.90
2009,03,09,09,09,-1.90
2009,03,09,09,10,-1.90
2009,03,09,09,11,-1.90
2009,03,09,09,12,-1.90
2009,03,09,09,13,-1.90
2009,03,09,09,14,-1.90
2009,03,09,09,15,-2.00
2009,03,09,09,16,-2.00
2009,03,09,09,17,-2.00
2009,03,09,09,18,-2.00
2009,03,09,09,19,-2.00
2009,03,09,09,20,-2.10
2009,03,09,09,21,-2.10
2009,03,09,09,22,-2.10
2009,03,09,09,23,-2.10
2009,03,09,09,24,-2.10
2009,03,09,09,25,-2.10
2009,03,09,09,26,-2.10
2009,03,09,09,27,-2.10
2009,03,09,09,28,-2.10
2009,03,09,09,29,-2.10
2009,03,09,09,30,-2.10
2009,03,09,09,31,-2.10
2009,03,09,09,32,-2.10
2009,03,09,09,33,-2.10
2009,03,09,09,34,-2.20
2009,03,09,09,35,-2.20
2009,03,09,09,36,-2.10
2009,03,09,09,37,-2.10
2009,03,09,09,38,-2.20
2009,03,09,09,39,-2.20
2009,03,09,09,40,-2.20
2009,03,09,09,41,-2.20
2009,03,09,09,42,-2.20
2009,03,09,09,43,-2.20
2009,03,09,09,44,-2.20
2009,03,09,09,45,-2.20
2009,03,09,09,46,-2.20
2009,03,09,09,47,-2.20
2009,03,09,09,48,-2.20
2009,03,09,09,49,-2.20
2009,03,09,09,50,-2.20
2009,03,09,09,51,-2.20
2009,03,09,09,52,-2.20
2009,03,09,09,53,-2.20
2009,03,09,09,54,-2.20
2009,03,09,09,55,-2.20
2009,03,09,09,56,-2.20
2009,03,09,09,57,-2.20
2009,03,09,09,58,-2.20
2009,03,09,09,59,-2.20
2009,03,09,10,00,-2.20
2009,03,09,10,01,-2.20
2009,03,09,10,02,-2.20
2009,03,09,10,03,-2.20
2009,03,09,10,04,-2.10
2009,03,09,10,05,-2.10
2009,03,09,10,06,-2.10
2009,03,09,10,07,-2.10
2009,03,09,10,08,-2.10
2009,03,09,10,09,-2.10
2009,03,09,10,10,-2.10
2009,03,09,10,11,-2.20
2009,03,09,10,12,-2.20
2009,03,09,10,13,-2.20
2009,03,09,10,14,-2.20
2009,03,09,10,15,-2.20
2009,03,09,10,16,-2.10
2009,03,09,10,17,-2.10
2009,03,09,10,18,-2.20
2009,03,09,10,19,-2.20
2009,03,09,10,20,-2.10
2009,03,09,10,21,-2.10
2009,03,09,10,22,-2.10
2009,03,09,10,23,-2.10
2009,03,09,10,24,-2.10
2009,03,09,10,25,-2.10
2009,03,09,10,26,-2.10
2009,03,09,10,27,-2.10
2009,03,09,10,28,-2.10
2009,03,09,10,29,-2.10
2009,03,09,10,30,-2.10
2009,03,09,10,31,-2.10
2009,03,09,10,32,-2.10
2009,03,09,10,33,-2.10
2009,03,09,10,34,-2.00
2009,03,09,10,35,-2.00
2009,03,09,10,36,-2.00
2009,03,09,10,37,-2.00
2009,03,09,10,38,-1.90
2009,03,09,10,39,-1.90
2009,03,09,10,40,-1.90
2009,03,09,10,41,-1.90
2009,03,09,10,42,-1.90
2009,03,09,10,43,-1.90
2009,03,09,10,44,-1.90
2009,03,09,10,45,-1.90
2009,03,09,10,46,-1.90
2009,03,09,10,47,-1.90
2009,03,09,10,48,-1.90
2009,03,09,10,49,-1.80
2009,03,09,10,50,-1.80
2009,03,09,10,51,-1.80
2009,03,09,10,52,-1.80
2009,03,09,10,53,-1.80
2009,03,09,10,54,-1.80
2009,03,09,10,55,-1.90
2009,03,09,10,56,-1.90
2009,03,09,10,57,-1.90
2009,03,09,10,58,-1.90
2009,03,09,10,59,-1.90
2009,03,09,11,00,-1.90
2009,03,09,11,01,-1.90
2009,03,09,11,02,-1.90
2009,03,09,11,03,-1.90
2009,03,09,11,04,-1.90
2009,03,09,11,05,-1.90
2009,03,09,11,06,-1.90
2009,03,09,11,07,-1.90
2009,03,09,11,08,-1.90
2009,03,09,11,09,-1.90
2009,03,09,11,10,-1.90
2009,03,09,11,11,-1.90
2009,03,09,11,12,-1.90
2009,03,09,11,13,-1.90
2009,03,09,11,14,-1.90
2009,03,09,11,15,-1.90
2009,03,09,11,16,-1.90
2009,03,09,11,17,-1.90
2009,03,09,11,18,-1.90
2009,03,09,11,19,-1.90
2009,03,09,11,20,-1.90
2009,03,09,11,21,-1.80
2009,03,09,11,22,-1.80
2009,03,09,11,23,-1.90
2009,03,09,11,24,-1.80
2009,03,09,11,25,-1.80
2009,03,09,11,26,-1.80
2009,03,09,11,27,-1.80
2009,03,09,11,28,-1.80
2009,03,09,11,29,-1.80
2009,03,09,11,30,-1.80
2009,03,09,11,31,-1.80
2009,03,09,11,32,-1.80
2009,03,09,11,33,-1.80
2009,03,09,11,34,-1.70
2009,03,09,11,35,-1.70
2009,03,09,11,36,-1.70
2009,03,09,11,37,-1.70
2009,03,09,11,38,-1.70
2009,03,09,11,39,-1.70
2009,03,09,11,40,-1.70
2009,03,09,11,41,-1.70
2009,03,09,11,42,-1.70
2009,03,09,11,43,-1.60
2009,03,09,11,44,-1.60
2009,03,09,11,45,-1.60
2009,03,09,11,46,-1.60
2009,03,09,11,47,-1.60
2009,03,09,11,48,-1.60
2009,03,09,11,49,-1.60
2009,03,09,11,50,-1.60
2009,03,09,11,51,-1.60
2009,03,09,11,52,-1.60
2009,03,09,11,53,-1.60
2009,03,09,11,54,-1.60
2009,03,09,11,55,-1.50
2009,03,09,11,56,-1.50
2009,03,09,11,57,-1.50
2009,03,09,13,01,-0.60
2009,03,09,13,02,-0.60
2009,03,09,13,03,-0.70
2009,03,09,13,04,-0.70
2009,03,09,13,05,-0.70
2009,03,09,13,06,-0.70
2009,03,09,13,07,-0.70
2009,03,09,13,08,-0.80
2009,03,09,13,09,-0.80
2009,03,09,13,10,-0.70
2009,03,09,13,11,-0.70
2009,03,09,13,12,-0.60
2009,03,09,13,13,-0.60
2009,03,09,13,14,-0.60
2009,03,09,13,15,-0.50
2009,03,09,13,16,-0.50
2009,03,09,13,17,-0.40
2009,03,09,13,18,-0.40
2009,03,09,13,19,-0.30
2009,03,09,13,20,-0.30
2009,03,09,13,21,-0.30
2009,03,09,13,22,-0.40
2009,03,09,13,23,-0.40
2009,03,09,13,24,-0.30
2009,03,09,13,25,-0.30
2009,03,09,13,26,-0.30
2009,03,09,13,27,-0.30
2009,03,09,13,28,-0.30
2009,03,09,13,29,-0.30
2009,03,09,13,30,-0.30
2009,03,09,13,31,-0.30
2009,03,09,13,32,-0.20
2009,03,09,13,33,-0.20
2009,03,09,13,34,-0.10
2009,03,09,13,35,0.00
2009,03,09,13,36,0.00
2009,03,09,13,37,0.10
2009,03,09,13,38,0.10
2009,03,09,13,39,0.10
2009,03,09,13,40,0.20
2009,03,09,13,41,0.20
2009,03,09,13,42,0.30
2009,03,09,13,43,0.30
2009,03,09,13,44,0.30
2009,03,09,13,45,0.20
2009,03,09,13,46,0.20
2009,03,09,13,47,0.20
2009,03,09,13,48,0.20
2009,03,09,13,49,0.20
2009,03,09,13,50,0.20
2009,03,09,13,51,0.20
2009,03,09,13,52,0.20
2009,03,09,13,53,0.20
2009,03,09,13,54,0.20
2009,03,09,13,55,0.20
2009,03,09,13,56,0.20
2009,03,09,13,57,0.20
2009,03,09,13,58,0.10
2009,03,09,13,59,0.20
2009,03,09,14,00,0.20
2009,03,09,14,01,0.20
2009,03,09,14,02,0.20
2009,03,09,14,03,0.30
2009,03,09,14,04,0.30
2009,03,09,14,05,0.30
2009,03,09,14,06,0.40
2009,03,09,14,07,0.40
2009,03,09,14,08,0.50
2009,03,09,14,09,0.50
2009,03,09,14,10,0.60
2009,03,09,14,11,0.60
2009,03,09,14,12,0.60
2009,03,09,14,13,0.60
2009,03,09,14,14,0.60
2009,03,09,14,15,0.60
2009,03,09,14,16,0.70
2009,03,09,14,17,0.70
2009,03,09,14,18,0.70
2009,03,09,14,19,0.70
2009,03,09,14,20,0.70
2009,03,09,14,21,0.60
2009,03,09,14,22,0.70
2009,03,09,14,23,0.70
2009,03,09,14,24,0.70
2009,03,09,14,25,0.70
2009,03,09,14,26,0.70
2009,03,09,14,27,0.70
2009,03,09,14,28,0.70
2009,03,09,14,29,0.70
2009,03,09,14,30,0.70
2009,03,09,14,31,0.70
2009,03,09,14,32,0.70
2009,03,09,14,33,0.70
2009,03,09,14,44,0.80
2009,03,09,14,45,0.80
2009,03,09,14,46,0.80
2009,03,09,14,47,0.80
2009,03,09,14,48,0.80
2009,03,09,14,49,0.90
2009,03,09,14,50,0.90
2009,03,09,14,51,0.90
2009,03,09,14,52,1.00
2009,03,09,14,53,1.00
2009,03,09,14,54,1.00
2009,03,09,14,55,1.00
2009,03,09,14,56,0.90
2009,03,09,14,57,0.90
2009,03,09,14,58,0.90
2009,03,09,14,59,0.80
2009,03,09,15,00,0.80
2009,03,09,15,01,0.70
2009,03,09,15,02,0.60
2009,03,09,15,03,0.60
2009,03,09,15,04,0.50
2009,03,09,15,05,0.50
2009,03,09,15,06,0.50
2009,03,09,15,07,0.50
2009,03,09,15,08,0.50
2009,03,09,15,09,0.50
2009,03,09,15,10,0.60
2009,03,09,15,11,0.60
2009,03,09,15,12,0.60
2009,03,09,15,13,0.70
2009,03,09,15,14,0.70
2009,03,09,15,15,0.70
2009,03,09,15,16,0.70
2009,03,09,15,17,0.70
2009,03,09,15,18,0.70
2009,03,09,15,19,0.70
2009,03,09,15,20,0.70
2009,03,09,15,21,0.60
2009,03,09,15,22,0.60
2009,03,09,15,23,0.60
2009,03,09,15,24,0.60
2009,03,09,15,25,0.60
2009,03,09,15,26,0.60
2009,03,09,15,27,0.70
2009,03,09,15,28,0.70
2009,03,09,15,29,0.70
2009,03,09,15,30,0.80
2009,03,09,15,31,0.80
2009,03,09,15,32,0.80
2009,03,09,15,33,0.80
2009,03,09,15,34,0.90
2009,03,09,15,35,0.90
2009,03,09,15,36,0.90
2009,03,09,15,37,0.90
2009,03,09,15,38,1.00
2009,03,09,15,39,1.00
2009,03,09,15,40,0.90
2009,03,09,15,41,0.90
2009,03,09,15,42,0.90
2009,03,09,15,43,0.80
2009,03,09,15,44,0.80
2009,03,09,15,45,0.80
2009,03,09,15,46,0.80
2009,03,09,15,47,0.90
2009,03,09,15,48,0.90
2009,03,09,15,49,0.90
2009,03,09,15,50,0.90
2009,03,09,15,51,0.90
2009,03,09,15,52,0.90
2009,03,09,15,53,0.90
2009,03,09,15,54,0.90
2009,03,09,15,55,0.90
2009,03,09,15,56,1.00
2009,03,09,15,57,1.10
2009,03,09,15,58,1.10
2009,03,09,15,59,1.20
2009,03,09,16,00,1.20
2009,03,09,16,01,1.30
2009,03,09,16,02,1.30
2009,03,09,16,03,1.30
2009,03,09,16,04,1.30
2009,03,09,16,05,1.30
2009,03,09,16,06,1.30
2009,03,09,16,07,1.30
2009,03,09,16,08,1.30
2009,03,09,16,09,1.30
2009,03,09,16,10,1.30
2009,03,09,16,11,1.30
2009,03,09,16,12,1.40
2009,03,09,16,13,1.50
2009,03,09,16,14,1.60
2009,03,09,16,15,1.60
2009,03,09,16,16,1.70
2009,03,09,16,17,1.80
2009,03,09,16,18,1.90
2009,03,09,16,19,2.00
2009,03,09,16,20,2.10
2009,03,09,16,21,2.10
2009,03,09,16,22,2.20
2009,03,09,16,23,2.20
2009,03,09,16,24,2.20
2009,03,09,16,25,2.20
2009,03,09,16,26,2.20
2009,03,09,16,27,2.30
2009,03,09,16,28,2.30
2009,03,09,16,29,2.40
2009,03,09,16,30,2.50
2009,03,09,16,31,2.60
2009,03,09,16,32,2.60
2009,03,09,16,33,2.60
2009,03,09,16,34,2.50
2009,03,09,16,35,2.50
2009,03,09,16,36,2.50
2009,03,09,16,37,2.40
2009,03,09,16,38,2.40
2009,03,09,16,39,2.40
2009,03,09,16,40,2.30
2009,03,09,16,41,2.40
2009,03,09,16,42,2.40
2009,03,09,16,43,2.40
2009,03,09,16,44,2.40
2009,03,09,16,45,2.30
2009,03,09,16,46,2.30
2009,03,09,16,47,2.20
2009,03,09,16,48,2.10
2009,03,09,16,49,2.00
2009,03,09,16,50,1.90
2009,03,09,16,51,1.80
2009,03,09,16,52,1.80
2009,03,09,16,53,1.90
2009,03,09,16,54,2.00
2009,03,09,16,55,2.00
2009,03,09,16,56,2.10
2009,03,09,16,57,2.10
2009,03,09,16,58,2.10
2009,03,09,16,59,2.10
2009,03,09,17,00,2.20
2009,03,09,17,01,2.20
2009,03,09,17,02,2.30
2009,03,09,17,03,2.30
2009,03,09,17,04,2.20
2009,03,09,17,05,2.10
2009,03,09,17,06,2.00
2009,03,09,17,07,1.90
2009,03,09,17,08,1.80
2009,03,09,17,09,1.70
2009,03,09,17,10,1.60
2009,03,09,17,11,1.50
2009,03,09,17,12,1.50
2009,03,09,17,13,1.50
2009,03,09,17,14,1.40
2009,03,09,17,15,1.30
2009,03,09,17,16,1.30
2009,03,09,17,17,1.30
2009,03,09,17,18,1.30
2009,03,09,17,19,1.30
2009,03,09,17,20,1.20
2009,03,09,17,21,1.20
2009,03,09,17,22,1.20
2009,03,09,17,23,1.10
2009,03,09,17,24,1.10
2009,03,09,17,25,1.10
2009,03,09,17,26,1.10
2009,03,09,17,27,1.10
2009,03,09,17,28,1.10
2009,03,09,17,29,1.10
2009,03,09,17,30,1.00
2009,03,09,17,31,1.00
2009,03,09,17,32,0.90
2009,03,09,17,33,0.90
2009,03,09,17,34,0.90
2009,03,09,17,35,0.90
2009,03,09,17,36,0.90
2009,03,09,17,37,0.90
2009,03,09,17,38,0.80
2009,03,09,17,39,0.80
2009,03,09,17,40,0.80
2009,03,09,17,41,0.70
2009,03,09,17,42,0.60
2009,03,09,17,43,0.60
2009,03,09,17,44,0.50
2009,03,09,17,45,0.50
2009,03,09,17,46,0.40
2009,03,09,17,47,0.40
2009,03,09,17,48,0.40
2009,03,09,17,49,0.30
2009,03,09,17,50,0.30
2009,03,09,17,51,0.30
2009,03,09,17,52,0.30
2009,03,09,17,53,0.30
2009,03,09,17,54,0.30
2009,03,09,17,55,0.30
2009,03,09,17,56,0.30
2009,03,09,17,57,0.30
2009,03,09,17,58,0.40
2009,03,09,17,59,0.40
2009,03,09,18,00,0.40
2009,03,09,18,01,0.50
2009,03,09,18,02,0.50
2009,03,09,18,03,0.50
2009,03,09,18,04,0.60
2009,03,09,18,05,0.60
2009,03,09,18,06,0.60
2009,03,09,18,07,0.60
2009,03,09,18,08,0.60
2009,03,09,18,09,0.60
2009,03,09,18,10,0.60
2009,03,09,18,11,0.60
2009,03,09,18,12,0.60
2009,03,09,18,13,0.60
2009,03,09,18,14,0.60
2009,03,09,18,15,0.60
2009,03,09,18,16,0.60
2009,03,09,18,17,0.60
2009,03,09,18,18,0.60
2009,03,09,18,19,0.60
2009,03,09,18,20,0.60
2009,03,09,18,21,0.60
2009,03,09,18,22,0.60
2009,03,09,18,23,0.50
2009,03,09,18,24,0.50
2009,03,09,18,25,0.50
2009,03,09,18,26,0.40
2009,03,09,18,27,0.40
2009,03,09,18,28,0.30
2009,03,09,18,29,0.30
2009,03,09,18,30,0.30
2009,03,09,18,31,0.20
2009,03,09,18,32,0.20
2009,03,09,18,33,0.20
2009,03,09,18,34,0.10
2009,03,09,18,35,0.10
2009,03,09,18,36,0.10
2009,03,09,18,37,0.10
2009,03,09,18,38,0.10
2009,03,09,18,39,0.00
2009,03,09,18,40,0.00
2009,03,09,18,41,0.00
2009,03,09,18,42,0.00
2009,03,09,18,43,0.00
2009,03,09,18,44,-0.10
2009,03,09,18,45,-0.10
2009,03,09,18,46,-0.20
2009,03,09,18,47,-0.20
2009,03,09,18,48,-0.20
2009,03,09,18,49,-0.30
2009,03,09,18,50,-0.30
2009,03,09,18,51,-0.30
2009,03,09,18,52,-0.30
2009,03,09,18,53,-0.30
2009,03,09,18,54,-0.20
2009,03,09,18,55,-0.20
2009,03,09,18,56,-0.20
2009,03,09,18,57,-0.20
2009,03,09,18,58,-0.20
2009,03,09,18,59,-0.20
2009,03,09,19,00,-0.20
2009,03,09,19,01,-0.20
2009,03,09,19,02,-0.20